Voltar ao catálogo

YAOGAN-43 03B

AtivoMilitarVLEO
NORAD 61618·PAYLOAD·🇨🇳 China

Lançado Oct 23, 2024 de Xichang Satellite Launch Center

Loading…

Próximas Passagens (próximas 24 horas)

TLE

AtualizadoSource: Space-Track

Época: Sep 14, 2026, 17:23 UTC

1 61618U 24190B   26257.72496756  .00006816  00000-0  28242-3 0  9998
2 61618  34.9900 354.4510 0007042  99.3735 260.7776 15.23191833105524

Acompanhe YAOGAN-43 03B em tempo real com AllMySat

Download on the App Store